Location: Les Salelles
(44.4192°N, 4.1044°E)
Time: 12:13:49
(UTC+00:00)

Meteor 1-24 Rocket - Pass Details

Date: 20 January 2021
Orbit: 791 x 926 km, 81.3° (Epoch: 06 March)

Event Time Altitude Azimuth Distance (km) Brightness Sun altitude
Rises 17:38:47 0° 195° (SSW) 3,324 7.3 -11.1°
Reaches altitude 10° 17:41:11 10° 197° (SSW) 2,382 6.5 -11.5°
Maximum altitude 17:46:32 71° 281° (WNW) 841 3.9 -12.4°
Drops below altitude 10° 17:51:50 10° 6° (N) 2,367 5.8 -13.3°
Sets 17:54:14 0° 9° (N) 3,301 6.5 -13.7°
